Find Starlink 32734

NORAD ID: 62476 Int'l Des: 2024-254 Owner: SPXS Country: US Constellation: starlink operational
LEOCIRCULAR

リアルタイム位置

3D地球を読み込み中...

Starlink 32734について

説明を読み込み中...

次回通過

Passes for default location (London). Set your location on the main map for personalized predictions.

高度履歴

Loading altitude history...

軌道要素

1 62476U 24254Q 26121.99502588 .00027270 00000-0 99687-3 0 9990
2 62476 42.9989 75.4761 0000258 162.1059 197.9802 15.27578995 75801
Epoch: May 1, 2026 • Age: 20 hours

現在のステータス

高度 482.0 km
速度 7.63 km/s
衛星直下点 4.50°N, 93.33°E
打ち上げ日 Dec 31, 2024
運用期間 1.3 years
タイプ internet

技術仕様

分類 Payload
質量 730.00 kg
乾燥質量 700.00 kg
総質量 730.00 kg
長さ 0.30 m
直径 4.10 m
スパン 29.00 m
形状 Box + pan
製造者 SPXS
バスタイプ Starlink V2M
フェーズステータス In Orbit
所有者/国 SPXS/US

Most Searched